• In Lithuania
  • List of Countries
  • For 7 days
  • Water Temperature
  • Satellite Maps
  • Weather Map
  • Weather Widgets
  • user-avatar
    Login

    Hourly Weather Brisbane

    Today, 26 September, Tuesday

    Time Temperature Precipitation Wind Pressure Humidity
    00:00 +26°C° 0 mm 4 mps 757 mmHg 43%
    01:00 +25°C° 0 mm 4 mps 757 mmHg 44%
    02:00 +25°C° 0 mm 3 mps 757 mmHg 43%
    03:00 +24°C° 0 mm 2 mps 757 mmHg 43%
    04:00 +24°C° 0 mm 1 mps 757 mmHg 40%
    05:00 +24°C° 0 mm 2 mps 757 mmHg 40%
    06:00 +25°C° 0 mm 2 mps 758 mmHg 39%
    07:00 +25°C° 0 mm 2 mps 758 mmHg 38%
    08:00 +27°C° 0 mm 2 mps 758 mmHg 34%
    09:00 +29°C° 0 mm 2 mps 759 mmHg 31%
    10:00 +30°C° 0 mm 3 mps 759 mmHg 30%
    11:00 +31°C° 0 mm 3 mps 758 mmHg 30%
    12:00 +33°C° 0 mm 4 mps 758 mmHg 31%
    13:00 +33°C° 0 mm 4 mps 758 mmHg 31%
    14:00 +32°C° 0 mm 4 mps 758 mmHg 35%
    15:00 +30°C° 0 mm 5 mps 758 mmHg 39%
    16:00 +27°C° 0 mm 5 mps 758 mmHg 48%
    17:00 +25°C° 0 mm 5 mps 758 mmHg 55%
    18:00 +23°C° 0 mm 4 mps 759 mmHg 61%
    19:00 +21°C° 0 mm 4 mps 760 mmHg 67%
    20:00 +21°C° 0 mm 3 mps 760 mmHg 71%
    21:00 +20°C° 0 mm 3 mps 760 mmHg 75%
    22:00 +19°C° 0 mm 3 mps 761 mmHg 78%
    23:00 +19°C° 0 mm 3 mps 761 mmHg 79%

    Tomorrow, 27 September, Wednesday

    Time Temperature Precipitation Wind Pressure Humidity
    00:00 +19°C° 0 mm 3 mps 761 mmHg 80%
    01:00 +19°C° 0 mm 3 mps 761 mmHg 81%
    02:00 +19°C° 0 mm 3 mps 761 mmHg 81%
    03:00 +19°C° 0 mm 3 mps 761 mmHg 80%
    04:00 +19°C° 0 mm 3 mps 761 mmHg 80%
    05:00 +20°C° 0 mm 3 mps 761 mmHg 78%
    06:00 +20°C° 0 mm 3 mps 762 mmHg 75%
    07:00 +21°C° 0 mm 3 mps 762 mmHg 73%
    08:00 +22°C° 0 mm 3 mps 762 mmHg 69%
    09:00 +24°C° 0 mm 3 mps 762 mmHg 66%
    10:00 +25°C° 0 mm 3 mps 762 mmHg 62%
    11:00 +25°C° 0 mm 3 mps 762 mmHg 60%
    12:00 +26°C° 0 mm 3 mps 761 mmHg 58%
    13:00 +27°C° 0 mm 3 mps 760 mmHg 55%
    14:00 +27°C° 0 mm 4 mps 760 mmHg 57%
    15:00 +27°C° 0 mm 4 mps 759 mmHg 60%
    16:00 +27°C° 0 mm 4 mps 759 mmHg 62%
    17:00 +25°C° 0 mm 4 mps 759 mmHg 70%
    18:00 +23°C° 0 mm 4 mps 759 mmHg 79%
    19:00 +21°C° 0 mm 4 mps 760 mmHg 88%
    20:00 +21°C° 0 mm 3 mps 760 mmHg 89%
    21:00 +21°C° 0 mm 3 mps 760 mmHg 90%
    22:00 +21°C° 0 mm 3 mps 760 mmHg 92%
    23:00 +21°C° 0 mm 3 mps 760 mmHg 92%

    Day after tomorrow, 28 September, Thursday

    Time Temperature Precipitation Wind Pressure Humidity
    00:00 +21°C° 0 mm 3 mps 760 mmHg 92%
    01:00 +20°C° 0 mm 3 mps 760 mmHg 93%
    02:00 +20°C° 0 mm 3 mps 759 mmHg 92%
    03:00 +20°C° 0 mm 4 mps 759 mmHg 92%
    04:00 +20°C° 0 mm 4 mps 758 mmHg 92%
    05:00 +20°C° 0 mm 4 mps 759 mmHg 87%
    06:00 +21°C° 0 mm 4 mps 759 mmHg 82%
    07:00 +22°C° 0 mm 4 mps 759 mmHg 77%
    08:00 +27°C° 0 mm 4 mps 759 mmHg 60%
    09:00 +32°C° 0 mm 5 mps 759 mmHg 43%
    10:00 +35°C° 0 mm 5 mps 759 mmHg 26%
    11:00 +37°C° 0 mm 5 mps 758 mmHg 23%
    12:00 +40°C° 0 mm 6 mps 757 mmHg 19%
    13:00 +42°C° 0 mm 6 mps 756 mmHg 16%
    14:00 +42°C° 0 mm 6 mps 756 mmHg 17%
    15:00 +42°C° 0 mm 6 mps 755 mmHg 17%
    16:00 +41°C° 0 mm 6 mps 755 mmHg 17%
    17:00 +39°C° 0 mm 6 mps 755 mmHg 22%
    18:00 +36°C° 0 mm 5 mps 756 mmHg 27%
    19:00 +33°C° 0 mm 5 mps 756 mmHg 31%
    20:00 +32°C° 0 mm 4 mps 757 mmHg 33%
    21:00 +30°C° 0 mm 3 mps 757 mmHg 35%
    22:00 +28°C° 0 mm 2 mps 758 mmHg 38%
    23:00 +27°C° 0 mm 2 mps 758 mmHg 38%

    29 September, Friday

    Time Temperature Precipitation Wind Pressure Humidity
    00:00 +27°C° 0 mm 2 mps 758 mmHg 38%
    01:00 +26°C° 0 mm 2 mps 758 mmHg 38%
    02:00 +25°C° 0 mm 2 mps 758 mmHg 40%
    03:00 +25°C° 0 mm 2 mps 758 mmHg 42%
    04:00 +24°C° 0 mm 2 mps 758 mmHg 44%
    05:00 +25°C° 0 mm 2 mps 759 mmHg 42%
    06:00 +26°C° 0 mm 1 mps 759 mmHg 41%
    07:00 +26°C° 0 mm 1 mps 760 mmHg 40%
    08:00 +29°C° 0 mm 1 mps 760 mmHg 34%
    09:00 +34°C° 0 mm 2 mps 760 mmHg 29%
    10:00 +37°C° 0 mm 2 mps 760 mmHg 23%
    11:00 +37°C° 0 mm 2 mps 760 mmHg 24%
    12:00 +38°C° 0 mm 3 mps 759 mmHg 24%
    13:00 +38°C° 0 mm 4 mps 758 mmHg 24%
    14:00 +37°C° 0 mm 4 mps 758 mmHg 29%
    15:00 +36°C° 0 mm 4 mps 757 mmHg 33%
    16:00 +34°C° 0 mm 4 mps 757 mmHg 38%
    17:00 +31°C° 0 mm 3 mps 758 mmHg 49%
    18:00 +28°C° 0 mm 2 mps 758 mmHg 61%
    19:00 +25°C° 0 mm 1 mps 759 mmHg 72%
    20:00 +24°C° 0 mm 1 mps 759 mmHg 75%
    21:00 +24°C° 0 mm 2 mps 760 mmHg 77%
    22:00 +23°C° 0 mm 2 mps 760 mmHg 80%
    23:00 +23°C° 0 mm 2 mps 760 mmHg 76%

    30 September, Saturday

    Time Temperature Precipitation Wind Pressure Humidity
    00:00 +23°C° 0 mm 2 mps 760 mmHg 72%
    01:00 +23°C° 0 mm 2 mps 759 mmHg 68%
    02:00 +21°C° 0 mm 2 mps 760 mmHg 62%
    03:00 +21°C° 0 mm 2 mps 760 mmHg 56%
    04:00 +21°C° 0 mm 2 mps 760 mmHg 50%
    05:00 +21°C° 0 mm 2 mps 760 mmHg 46%
    06:00 +22°C° 0 mm 3 mps 761 mmHg 42%
    07:00 +24°C° 0 mm 3 mps 762 mmHg 38%
    08:00 +26°C° 0 mm 3 mps 762 mmHg 32%
    09:00 +29°C° 0 mm 2 mps 761 mmHg 27%
    10:00 +32°C° 0 mm 2 mps 761 mmHg 22%
    11:00 +34°C° 0 mm 2 mps 761 mmHg 22%
    12:00 +35°C° 0 mm 3 mps 760 mmHg 21%
    13:00 +36°C° 0 mm 4 mps 759 mmHg 21%
    14:00 +34°C° 0 mm 4 mps 759 mmHg 24%
    15:00 +33°C° 0 mm 4 mps 759 mmHg 28%
    16:00 +30°C° 0 mm 5 mps 759 mmHg 32%
    17:00 +27°C° 0 mm 4 mps 759 mmHg 39%
    18:00 +25°C° 0 mm 4 mps 760 mmHg 46%
    19:00 +22°C° 0 mm 3 mps 761 mmHg 53%
    20:00 +21°C° 0 mm 2 mps 761 mmHg 55%
    21:00 +22°C° 0 mm 1 mps 762 mmHg 57%
    22:00 +19°C° 0 mm 0 mps 762 mmHg 59%
    23:00 +21°C° 0 mm 1 mps 762 mmHg 59%

    1 October, Sunday

    Time Temperature Precipitation Wind Pressure Humidity
    00:00 +21°C° 0 mm 1 mps 762 mmHg 60%
    01:00 +19°C° 0 mm 2 mps 762 mmHg 61%
    02:00 +20°C° 0 mm 2 mps 762 mmHg 56%
    03:00 +20°C° 0 mm 3 mps 762 mmHg 50%
    04:00 +20°C° 0 mm 4 mps 763 mmHg 45%
    05:00 +20°C° 0 mm 3 mps 763 mmHg 44%
    06:00 +20°C° 0 mm 3 mps 764 mmHg 43%
    07:00 +20°C° 0 mm 3 mps 764 mmHg 43%
    08:00 +20°C° 0 mm 3 mps 764 mmHg 41%
    09:00 +21°C° 0 mm 3 mps 764 mmHg 40%
    10:00 +23°C° 0 mm 2 mps 765 mmHg 39%
    11:00 +22°C° 0 mm 3 mps 764 mmHg 39%
    12:00 +22°C° 0 mm 3 mps 764 mmHg 39%
    13:00 +22°C° 0 mm 3 mps 763 mmHg 39%
    14:00 +22°C° 0 mm 3 mps 763 mmHg 40%
    15:00 +22°C° 0 mm 3 mps 763 mmHg 41%
    16:00 +22°C° 0 mm 3 mps 763 mmHg 41%
    17:00 +20°C° 0 mm 3 mps 764 mmHg 47%
    18:00 +19°C° 0 mm 2 mps 765 mmHg 52%
    19:00 +18°C° 0 mm 2 mps 765 mmHg 58%
    20:00 +18°C° 0 mm 2 mps 766 mmHg 61%
    21:00 +17°C° 0 mm 2 mps 766 mmHg 65%
    22:00 +17°C° 0 mm 2 mps 766 mmHg 68%
    23:00 +17°C° 0 mm 2 mps 766 mmHg 70%
    Show more